Regional Weather Roundup
Issued by NWS

Home | Current Version | Previous Version | Graphics & Text | Print | Product List | Glossary On
Versions: 1 2 3 4 5 6 7 8 9 10 11 12 13 14 15 16 17 18 19 20 21 22 23 24 25 26 27 28 29 30 31 32 33 34 35 36 37 38 39 40 41 42 43 44 45 46 47 48 49 50
000
ASUS43 KOAX 242010
RWRNE

WEATHER ROUNDUP FOR NEBRASKA
NATIONAL WEATHER SERVICE OMAHA NE
200 PM CST FRI FEB 24 2017

NOTES: SATELLITE DATA IS BEING USED TO AUGMENT CLOUD COVER ABOVE
       12000 FEET.
       "FAIR" INDICATES FEW OR NO CLOUDS BELOW 12,000 FEET WITH NO
       SIGNIFICANT WEATHER AND/OR OBSTRUCTIONS TO VISIBILITY.

  * THESE STATIONS DO NOT REPORT WEATHER SUCH AS RAIN...SNOW OR FOG.

NEZ001>004-019>022-054>056-242100-
NEBRASKA PANHANDLE

CITY           SKY/WX    TMP DP  RH WIND       PRES   REMARKS
SCOTTSBLUFF    CLOUDY    23  17  78 CALM      30.03S HAZE
ALLIANCE       CLOUDY    21  16  81 N9        30.01S WCI  11
CHADRON        CLOUDY    22  15  75 NW3       30.07F
KIMBALL        CLOUDY    22  18  84 N3        29.98S FOG
SIDNEY         CLOUDY    23  17  78 N9        30.00S WCI  13
$$

NEZ057>060-069>072-079>082-242100-
SOUTHWEST NEBRASKA

CITY           SKY/WX    TMP DP  RH WIND       PRES   REMARKS
NORTH PLATTE   CLOUDY    24  11  57 N17G26    30.03S WCI  11
IMPERIAL       CLOUDY    25  18  74 N18       30.01F WCI  11
LEXINGTON      CLOUDY    24  14  65 N25       29.99S WCI   8
MCCOOK         CLOUDY    28  19  69 N20       30.00R WCI  15
OGALLALA       CLOUDY    27  17  67 N14       30.02S WCI  15
$$

NEZ005>010-023>029-035>040-094-242100-
NORTH CENTRAL NEBRASKA

CITY           SKY/WX    TMP DP  RH WIND       PRES   REMARKS
VALENTINE      CLOUDY    22  13  68 N14       30.05F WCI   9
AINSWORTH      CLOUDY    22  17  79 N24       30.03S WCI   6
BROKEN BOW     MOSUNNY   23  14  68 N23G32    29.99S WCI   7
O`NEILL        CLOUDY    25  17  73 N24G30    30.00S WCI   9
ORD            CLOUDY    23  13  65 N28G35    29.98R WCI   6
THEDFORD       PTSUNNY   22  14  71 N16       30.03S WCI   8
$$

NEZ041-046>049-061>064-073>077-083>087-242100-
SOUTH CENTRAL NEBRASKA

CITY           SKY/WX    TMP DP  RH WIND       PRES   REMARKS
GRAND ISLAND   CLOUDY    22  16  78 N28       29.97R WCI   4
AURORA         CLOUDY    24  18  79 N22       29.95S WCI   8
HASTINGS       CLOUDY    24  16  71 N28       29.97R WCI   7
HEBRON         LGT SNOW  24  20  83 N23G32    29.92R WCI   9
HOLDREGE       CLOUDY    24  15  70 N18G26    29.97S WCI  10
KEARNEY *      PTSUNNY   25  14  63 N24G30    29.98R WCI   9
YORK           LGT SNOW  23  19  86 N16G24    29.92S WCI  10
$$

NEZ011>018-030>034-042>045-242100-
NORTHEAST NEBRASKA

CITY           SKY/WX    TMP DP  RH WIND       PRES   REMARKS
NORFOLK        CLOUDY    24  14  65 N17G29    29.91S WCI  11
ALBION         CLOUDY    25  15  64 N16G31    29.94S WCI  13
BLAIR          LGT SNOW  25  21  87 NW22G29   29.83R VSB 3/4 WCI  10
FREMONT        LGT SNOW  24  20  86 NW20G29   29.88R WCI  10
TEKAMAH        FOG       24  20  84 NW24      29.87R VSB 3/4 WCI   8
WAYNE          CLOUDY    24  17  72 N18       29.91R WCI  11
$$

NEZ050>053-065>068-078-088>093-242100-
SOUTHEAST NEBRASKA

CITY           SKY/WX    TMP DP  RH WIND       PRES   REMARKS
LINCOLN        LGT SNOW  25  21  85 N29G35    29.89R FOG     WCI   8
OMAHA EPPLEY   SNOW      25  19  78 N24G37    29.84R VSB 1/4 WCI   9
BEATRICE       LGT SNOW  26  23  88 NW24G35   29.88S WCI  11
FALLS CITY     LGT SNOW  28  25  88 NW20G29   29.81R VSB 1   WCI  15
NEBRASKA CITY  LGT SNOW  26  22  85 N18G26    29.83R VSB 3/4 WCI  13
PLATTSMOUTH    LGT SNOW  25  20  81 NW15G26   29.83R VSB 1   WCI  13
$$

NEZ044-045-051>053-067-242100-
OMAHA AREA

CITY           SKY/WX    TMP DP  RH WIND       PRES   REMARKS
OMAHA EPPLEY   SNOW      25  19  78 N24G37    29.84R VSB 1/4 WCI   9
BLAIR          LGT SNOW  25  21  87 NW22G29   29.83R VSB 3/4 WCI  10
FREMONT        LGT SNOW  24  20  86 NW20G29   29.88R WCI  10
MILLARD        SNOW      27  23  85 NW16G29   29.86R VSB 1/2 WCI  15
OFFUTT AFB     LGT SNOW  25  21  86 N13       29.84R VSB 1   WCI  13
PLATTSMOUTH    LGT SNOW  25  20  81 NW15G26   29.83R VSB 1   WCI  13
WAHOO          CLOUDY    24  20  85 NW23G33   29.87R WCI   8
$$



USA.gov is the U.S. government's official web portal to all federal, state and local government web resources and services.